Weather History for Corning, AR

Change the Weather History Date:

Thursday, March 7, 2013

  Actual Average (KARG) Record (KARG)
Temperature  
Mean Temperature 41 °F -  
Max Temperature 50 °F 52 °F 73 °F (2009)
Min Temperature 32 °F 34 °F 23 °F (2014)
Degree Days  
Heating Degree Days 24    
Moisture  
Dew Point 30 °F    
Average Humidity 72    
Maximum Humidity 93    
Minimum Humidity 50    
Precipitation  
Precipitation 0.00 in - - ()
Sea Level Pressure  
Sea Level Pressure 30.36 in    
Wind  
Wind Speed 6 mph (East)    
Max Wind Speed 10 mph    
Max Gust Speed -    
Visibility 10 miles    
Events      
Averages and records for this station are not official NWS values.
T = Trace of Precipitation, MM = Missing Value Source: NWS Daily Summary

Daily Weather History Graph

Daily Weather History Graph

Search for Another Location

Airport:

Trip Planner

Search our weather history database for the weather conditions in past years. The results will help you decide how hot, cold, wet, or windy it might be!

Date:

Astronomy

Mar. 07, 2013 Rise Set
Actual Time 6:24 AM CST 6:03 PM CST
Civil Twilight 5:58 AM CST 6:28 PM CST
Nautical Twilight 5:28 AM CST 6:58 PM CST
Astronomical Twilight 4:59 AM CST 7:28 PM CST
Moon 3:18 AM CST (3/7) 1:56 PM CST (3/7)
Length of Visible Light 12h 30m
Length of Day
11h 38m
Waning Crescent, 20% of the Moon is Illuminated
Mar 7
Waning Crescent
Mar 11
New
Mar 19
First Quarter
Mar 27
Full
Apr 2
Last Quarter

Hourly Weather History & Observations

Time (CST) Temp. Windchill Dew Point Humidity Pressure Visibility Wind Dir Wind Speed Gust Speed Precip Events Conditions
12:15 AM 33.8 °F 27.7 °F 30.2 °F 87% 30.33 in 10.0 mi ENE 6.9 mph - N/A   Clear
12:35 AM 32.0 °F 25.6 °F 30.2 °F 93% 30.33 in 10.0 mi ENE 6.9 mph - N/A   Clear
12:55 AM 33.8 °F 27.0 °F 28.4 °F 81% 30.33 in 10.0 mi East 8.1 mph - N/A   Clear
1:15 AM 33.8 °F 27.7 °F 28.4 °F 81% 30.34 in 10.0 mi ENE 6.9 mph - N/A   Clear
1:55 AM 32.0 °F 27.5 °F 28.4 °F 87% 30.36 in 10.0 mi North 4.6 mph - N/A   Clear
2:15 AM 32.0 °F 27.5 °F 30.2 °F 93% 30.35 in 10.0 mi ENE 4.6 mph - N/A   Clear
2:35 AM 32.0 °F - 30.2 °F 93% 30.35 in 10.0 mi Calm Calm - N/A   Clear
2:55 AM 32.0 °F 25.6 °F 30.2 °F 93% 30.35 in 9.0 mi NNE 6.9 mph - N/A   Clear
3:15 AM 32.0 °F 26.4 °F 28.4 °F 87% 30.35 in 10.0 mi NE 5.8 mph - N/A   Clear
3:55 AM 32.0 °F 25.6 °F 28.4 °F 87% 30.37 in 10.0 mi NNE 6.9 mph - N/A   Clear
4:15 AM 32.0 °F 27.5 °F 28.4 °F 87% 30.37 in 10.0 mi NNE 4.6 mph - N/A   Clear
4:35 AM 32.0 °F 27.5 °F 28.4 °F 87% 30.37 in 10.0 mi NE 4.6 mph - N/A   Clear
4:55 AM 32.0 °F 24.8 °F 28.4 °F 87% 30.37 in 10.0 mi NE 8.1 mph - N/A   Clear
5:15 AM 32.0 °F 26.4 °F 28.4 °F 87% 30.37 in 10.0 mi NE 5.8 mph - N/A   Clear
5:55 AM 32.0 °F 25.6 °F 26.6 °F 80% 30.38 in 10.0 mi NE 6.9 mph - N/A   Clear
6:15 AM 32.0 °F 24.2 °F 26.6 °F 80% 30.37 in 10.0 mi NE 9.2 mph - N/A   Clear
6:35 AM 32.0 °F 27.5 °F 26.6 °F 80% 30.38 in 10.0 mi NE 4.6 mph - N/A   Clear
6:55 AM 32.0 °F - 28.4 °F 87% 30.39 in 10.0 mi North - - N/A   Clear
7:15 AM 32.0 °F 27.5 °F 28.4 °F 87% 30.40 in 10.0 mi NE 4.6 mph - N/A   Clear
7:35 AM 32.0 °F 26.4 °F 28.4 °F 87% 30.41 in 10.0 mi ENE 5.8 mph - N/A   Clear
7:55 AM 33.8 °F 27.7 °F 28.4 °F 81% 30.40 in 10.0 mi East 6.9 mph - N/A   Clear
8:15 AM 35.6 °F 29.9 °F 28.4 °F 75% 30.41 in 10.0 mi East 6.9 mph - N/A   Clear
8:35 AM 37.4 °F 32.1 °F 28.4 °F 70% 30.43 in 10.0 mi East 6.9 mph - N/A   Clear
8:55 AM 37.4 °F 31.4 °F 28.4 °F 70% 30.41 in 10.0 mi ESE 8.1 mph - N/A   Clear
9:15 AM 37.4 °F 30.8 °F 28.4 °F 70% 30.42 in 10.0 mi ESE 9.2 mph - N/A   Clear
9:35 AM 39.2 °F 34.2 °F 28.4 °F 65% 30.43 in 10.0 mi ESE 6.9 mph - N/A   Clear
9:55 AM 39.2 °F 35.0 °F 28.4 °F 65% 30.42 in 10.0 mi ESE 5.8 mph - N/A   Clear
10:15 AM 41.0 °F 35.8 °F 28.4 °F 61% 30.42 in 10.0 mi SE 8.1 mph - N/A   Clear
10:35 AM 41.0 °F 35.8 °F 28.4 °F 61% 30.41 in 10.0 mi ESE 8.1 mph - N/A   Clear
10:55 AM 41.0 °F 39.0 °F 28.4 °F 61% 30.42 in 10.0 mi ESE 3.5 mph - N/A   Clear
11:15 AM 41.0 °F 38.0 °F 28.4 °F 61% 30.41 in 10.0 mi ENE 4.6 mph - N/A   Clear
11:55 AM 44.6 °F 43.1 °F 28.4 °F 53% 30.40 in 10.0 mi SSE 3.5 mph - N/A   Clear
12:15 PM 44.6 °F 42.2 °F 30.2 °F 57% 30.39 in 10.0 mi East 4.6 mph - N/A   Clear
12:35 PM 44.6 °F 41.4 °F 32.0 °F 61% 30.38 in 10.0 mi East 5.8 mph - N/A   Clear
12:55 PM 46.4 °F - 32.0 °F 57% 30.37 in 10.0 mi Calm Calm - N/A   Clear
1:15 PM 46.4 °F 45.2 °F 30.2 °F 53% 30.36 in 10.0 mi SSE 3.5 mph - N/A   Clear
1:35 PM 46.4 °F - 32.0 °F 57% 30.35 in 10.0 mi Calm Calm - N/A   Clear
1:55 PM 46.4 °F 44.3 °F 30.2 °F 53% 30.35 in 10.0 mi SE 4.6 mph - N/A   Clear
2:15 PM 48.2 °F - 32.0 °F 54% 30.34 in 10.0 mi ESE 4.6 mph - N/A   Clear
2:35 PM 48.2 °F - 32.0 °F 54% 30.34 in 10.0 mi SSE 4.6 mph - N/A   Clear
2:55 PM 48.2 °F - 32.0 °F 54% 30.33 in 10.0 mi ESE 4.6 mph - N/A   Clear
3:15 PM 48.2 °F - 32.0 °F 54% 30.33 in 10.0 mi SSE 5.8 mph - N/A   Clear
3:35 PM 48.2 °F - 30.2 °F 50% 30.33 in 10.0 mi East 5.8 mph - N/A   Clear
3:55 PM 50.0 °F - 32.0 °F 50% 30.32 in 10.0 mi Calm Calm - N/A   Clear
4:15 PM 48.2 °F - 32.0 °F 54% 30.31 in 10.0 mi ESE 5.8 mph - N/A   Clear
4:35 PM 48.2 °F - 32.0 °F 54% 30.31 in 10.0 mi East 6.9 mph - N/A   Clear
4:55 PM 48.2 °F - 32.0 °F 54% 30.31 in 10.0 mi ESE 5.8 mph - N/A   Clear
5:15 PM 48.2 °F - 33.8 °F 58% 30.31 in 10.0 mi East 5.8 mph - N/A   Clear
5:35 PM 46.4 °F 42.9 °F 35.6 °F 66% 30.31 in 10.0 mi East 6.9 mph - N/A   Clear
7:35 PM 41.0 °F 34.7 °F 35.6 °F 81% 30.31 in 10.0 mi East 10.4 mph - N/A   Clear
8:15 PM 39.2 °F 33.6 °F 33.8 °F 81% 30.32 in 10.0 mi East 8.1 mph - N/A   Clear
8:55 PM 39.2 °F 33.6 °F 32.0 °F 75% 30.33 in 10.0 mi East 8.1 mph - N/A   Clear
9:15 PM 39.2 °F 34.2 °F 32.0 °F 75% 30.33 in 10.0 mi East 6.9 mph - N/A   Clear
9:35 PM 39.2 °F 34.2 °F 32.0 °F 75% 30.33 in 10.0 mi East 6.9 mph - N/A   Clear
9:55 PM 37.4 °F 31.4 °F 32.0 °F 81% 30.33 in 10.0 mi East 8.1 mph - N/A   Clear
10:15 PM 39.2 °F 34.2 °F 32.0 °F 75% 30.33 in 10.0 mi East 6.9 mph - N/A   Clear
10:55 PM 37.4 °F 32.1 °F 32.0 °F 81% 30.33 in 10.0 mi ENE 6.9 mph - N/A   Clear
11:15 PM 37.4 °F 32.1 °F 32.0 °F 81% 30.34 in 10.0 mi ENE 6.9 mph - N/A   Clear
11:35 PM 37.4 °F 32.1 °F 32.0 °F 81% 30.33 in 10.0 mi ENE 6.9 mph - N/A   Clear
11:55 PM 37.4 °F 32.1 °F 32.0 °F 81% 30.34 in 10.0 mi ENE 6.9 mph - N/A   Clear